| time (UTC) | temp C | wind direction | speed KPH | gust KPH | rain 1hr cm | rain 24hr cm | rain mn cm | humidity % | barometer mb |
| 20260506033048 | 18 | 0 | 0.0 | 4.8 | 0.00 | 20.96 | 11.35 | 37 | 1013.3 |
| 20260506031558 | 18 | 0 | 0.0 | 4.8 | 0.00 | 20.96 | 11.35 | 38 | 1013.1 |
| 20260506030105 | 18 | 10 | 0.0 | 4.8 | 0.00 | 20.96 | 11.35 | 37 | 1012.7 |
| 20260506024542 | 18 | 0 | 0.0 | 8.0 | 0.00 | 21.49 | 11.35 | 37 | 1012.4 |
| 20260506023046 | 19 | 274 | 1.6 | 9.7 | 0.00 | 21.49 | 11.35 | 37 | 1012.2 |
| 20260506021543 | 20 | 213 | 0.0 | 6.4 | 0.00 | 21.49 | 11.35 | 37 | 1012.0 |
| 20260506020044 | 20 | 241 | 1.6 | 6.4 | 0.00 | 21.49 | 11.35 | 35 | 1011.6 |
| 20260506014558 | 20 | 314 | 3.2 | 11.3 | 0.00 | 23.04 | 11.35 | 34 | 1011.6 |
| 20260506013049 | 21 | 165 | 3.2 | 12.9 | 0.00 | 23.04 | 11.35 | 32 | 1011.7 |
| 20260506011549 | 21 | 264 | 3.2 | 12.9 | 0.00 | 23.04 | 11.35 | 29 | 1011.5 |
| 20260506010042 | 22 | 262 | 4.8 | 11.3 | 0.00 | 23.04 | 11.35 | 27 | 1011.4 |
| 20260506004610 | 22 | 283 | 6.4 | 19.3 | 0.00 | 23.04 | 11.35 | 26 | 1011.3 |
| 20260506003042 | 22 | 52 | 3.2 | 16.1 | 0.00 | 23.04 | 11.35 | 30 | 1011.3 |
| 20260506001546 | 22 | 253 | 3.2 | 12.9 | 0.00 | 23.04 | 11.35 | 30 | 1011.2 |
| 20260506000051 | 23 | 253 | 4.8 | 17.7 | 0.00 | 23.04 | 11.35 | 30 | 1011.1 |
| 20260505234610 | 23 | 25 | 4.8 | 17.7 | 0.00 | 24.05 | 11.35 | 30 | 1010.9 |
| 20260505233041 | 23 | 317 | 3.2 | 17.7 | 0.00 | 24.05 | 11.35 | 30 | 1010.9 |
| 20260505231541 | 23 | 250 | 4.8 | 14.5 | 0.00 | 24.05 | 11.35 | 31 | 1010.9 |
| 20260505230040 | 23 | 50 | 4.8 | 16.1 | 0.00 | 24.05 | 11.35 | 29 | 1010.9 |
| 20260505224549 | 23 | 38 | 4.8 | 17.7 | 0.00 | 24.05 | 11.35 | 28 | 1011.1 |
| 20260505223101 | 25 | 58 | 8.0 | 17.7 | 0.00 | 24.05 | 11.35 | 25 | 1011.1 |
| 20260505221551 | 25 | 335 | 3.2 | 14.5 | 0.00 | 24.05 | 11.35 | 26 | 1011.2 |
| 20260505220043 | 25 | 271 | 8.0 | 20.9 | 0.00 | 24.05 | 11.35 | 26 | 1011.4 |
| 20260505214559 | 25 | 272 | 6.4 | 20.9 | 0.00 | 24.05 | 11.35 | 27 | 1011.4 |
| 20260505213046 | 23 | 311 | 6.4 | 20.9 | 0.00 | 24.05 | 11.35 | 30 | 1011.6 |
| 20260505211543 | 23 | 216 | 6.4 | 12.9 | 0.00 | 24.05 | 11.35 | 30 | 1011.8 |
| 20260505210043 | 23 | 264 | 3.2 | 12.9 | 0.00 | 24.05 | 11.35 | 32 | 1011.9 |
| 20260505204539 | 23 | 13 | 1.6 | 8.0 | 0.00 | 24.05 | 11.35 | 38 | 1012.1 |
| 20260505203039 | 23 | 239 | 1.6 | 11.3 | 0.00 | 24.05 | 11.35 | 39 | 1012.3 |
| 20260505201602 | 23 | 103 | 1.6 | 6.4 | 0.00 | 24.05 | 11.35 | 43 | 1012.5 |
| 20260505200100 | 23 | 356 | 1.6 | 14.5 | 0.00 | 24.05 | 11.35 | 44 | 1012.5 |
| 20260505194555 | 23 | 278 | 3.2 | 11.3 | 0.00 | 24.05 | 11.35 | 43 | 1012.5 |
| 20260505193048 | 23 | 248 | 3.2 | 12.9 | 0.00 | 24.05 | 11.35 | 45 | 1012.7 |
| 20260505191544 | 23 | 0 | 3.2 | 11.3 | 0.00 | 24.05 | 11.35 | 48 | 1012.9 |
| 20260505190048 | 22 | 218 | 3.2 | 11.3 | 0.00 | 24.05 | 11.35 | 50 | 1013.0 |
| 20260505184542 | 22 | 276 | 1.6 | 8.0 | 0.00 | 24.05 | 11.35 | 53 | 1013.3 |
| 20260505183047 | 21 | 247 | 1.6 | 6.4 | 0.00 | 24.05 | 11.35 | 52 | 1013.4 |
| 20260505181550 | 22 | 352 | 1.6 | 8.0 | 0.00 | 24.05 | 11.35 | 52 | 1013.6 |
| 20260505180050 | 21 | 0 | 1.6 | 9.7 | 0.00 | 24.05 | 11.35 | 54 | 1013.5 |
| 20260505174552 | 20 | 108 | 1.6 | 6.4 | 0.00 | 24.05 | 11.35 | 57 | 1013.7 |
| 20260505173051 | 20 | 0 | 0.0 | 4.8 | 0.00 | 24.05 | 11.35 | 62 | 1013.7 |
| 20260505171554 | 20 | 0 | 0.0 | 6.4 | 0.00 | 24.05 | 11.35 | 61 | 1013.7 |
| 20260505170049 | 18 | 0 | 0.0 | 4.8 | 0.00 | 24.05 | 11.35 | 62 | 1013.7 |
| 20260505164543 | 19 | 256 | 0.0 | 4.8 | 0.00 | 24.05 | 11.35 | 64 | 1013.6 |
| 20260505163042 | 18 | 0 | 0.0 | 3.2 | 0.00 | 24.05 | 11.35 | 68 | 1013.7 |
| 20260505161542 | 17 | 0 | 0.0 | 1.6 | 0.00 | 24.05 | 11.35 | 70 | 1013.4 |
| 20260505153047 | 16 | 0 | 0.0 | 1.6 | 0.00 | 24.05 | 11.35 | 79 | 1013.3 |
| 20260505151544 | 16 | 0 | 0.0 | 1.6 | 0.00 | 24.05 | 11.35 | 81 | 1013.4 |
| 20260505124545 | 14 | 131 | 1.6 | 4.8 | 0.00 | 24.05 | 11.35 | 85 | 1012.4 |
| 20260505123050 | 14 | 0 | 0.0 | 4.8 | 0.00 | 24.05 | 11.35 | 86 | 1012.1 |
| 20260505121544 | 14 | 112 | 1.6 | 4.8 | 0.00 | 24.05 | 11.35 | 87 | 1012.2 |
| 20260505120049 | 13 | 127 | 1.6 | 3.2 | 5.82 | 24.05 | 11.35 | 88 | 1012.3 |
| 20260505114542 | 13 | 108 | 0.0 | 6.4 | 11.63 | 24.05 | 11.35 | 87 | 1012.3 |
| 20260505113038 | 13 | 110 | 1.6 | 6.4 | 11.63 | 24.05 | 11.35 | 87 | 1012.0 |
| 20260505111544 | 13 | 123 | 1.6 | 9.7 | 11.63 | 24.05 | 11.35 | 87 | 1012.2 |
| 20260505101545 | 14 | 97 | 1.6 | 8.0 | 11.61 | 22.89 | 10.19 | 87 | 1013.0 |
| 20260505100043 | 14 | 165 | 1.6 | 8.0 | 11.58 | 21.72 | 9.02 | 87 | 1013.4 |
| 20260505094542 | 14 | 110 | 1.6 | 9.7 | 23.04 | 21.72 | 9.02 | 86 | 1013.1 |
| 20260505093041 | 14 | 86 | 3.2 | 9.7 | 2.87 | 21.72 | 9.02 | 86 | 1013.1 |
| 20260505091542 | 14 | 140 | 3.2 | 9.7 | 4.01 | 21.72 | 9.02 | 87 | 1013.3 |
| 20260505090044 | 14 | 137 | 4.8 | 11.3 | 3.99 | 20.57 | 7.87 | 87 | 1013.2 |
| 20260505084546 | 14 | 198 | 4.8 | 14.5 | 3.40 | 19.41 | 6.73 | 87 | 1013.6 |
| 20260505083038 | 14 | 87 | 4.8 | 9.7 | 3.94 | 18.85 | 6.15 | 88 | 1014.3 |
| 20260505081552 | 14 | 88 | 4.8 | 11.3 | 3.91 | 17.70 | 5.00 | 88 | 1014.7 |
| 20260505080049 | 14 | 102 | 6.4 | 11.3 | 3.89 | 16.59 | 3.89 | 88 | 1014.5 |
| 20260505074540 | 14 | 158 | 1.6 | 11.3 | 3.86 | 16.00 | 3.33 | 87 | 1015.4 |
| 20260505073055 | 15 | 251 | 3.2 | 6.4 | 3.84 | 14.88 | 22.15 | 86 | 1015.4 |
| 20260505071550 | 15 | 0 | 3.2 | 6.4 | 3.81 | 13.79 | 11.05 | 87 | 1015.3 |
| 20260505070055 | 15 | 100 | 0.0 | 4.8 | 2.72 | 12.67 | 0.00 | 86 | 1015.4 |
| 20260505064554 | 15 | 0 | 0.0 | 4.8 | 3.23 | 12.14 | 12.14 | 85 | 1015.5 |
| 20260505063109 | 15 | 90 | 1.6 | 3.2 | 2.69 | 11.05 | 11.05 | 84 | 1015.4 |
| 20260505061552 | 15 | 0 | 0.0 | 6.4 | 21.46 | 9.96 | 9.96 | 84 | 1015.6 |
| 20260505060046 | 15 | 135 | 0.0 | 4.8 | 16.08 | 9.42 | 9.42 | 82 | 1015.8 |
| 20260505054544 | 15 | 136 | 1.6 | 8.0 | 16.00 | 8.89 | 8.89 | 80 | 1015.5 |
| 20260505053059 | 15 | 0 | 0.0 | 3.2 | 21.31 | 8.36 | 8.36 | 80 | 1015.6 |
| 20260505051544 | 15 | 0 | 0.0 | 4.8 | 2.64 | 7.82 | 7.82 | 80 | 1015.5 |
| 20260505041555 | 15 | 119 | 3.2 | 9.7 | 20.88 | 5.16 | 5.16 | 75 | 1015.4 |
| 20260505040054 | 15 | 136 | 1.6 | 14.5 | 15.62 | 4.62 | 4.62 | 70 | 1015.5 |
| 20260505034541 | 15 | 139 | 1.6 | 4.8 | 5.21 | 3.58 | 3.58 | 68 | 1015.1 |